Other Surface Observations
Issued by NWS

Home | Current Version | Previous Version | Text Only | Print | Product List | Glossary On
Versions: 1 2 3 4 5 6 7 8 9 10 11 12 13 14 15 16 17 18 19 20 21 22 23 24 25 26 27 28 29 30 31 32 33 34 35 36 37 38 39 40 41 42 43 44 45 46 47 48 49 50
000
SXUS52 KTAE 292119
OSOTAE
OSOTAE
North Florida/South Alabama/Southwest Georgia Weather Roundup
National Weather Service Tallahassee Florida
500 PM EDT WED JUL 29 2015

Note: "fair" indicates few or no clouds below 12,000 feet with no
significant weather and/or obstructions to visibility.

!FLZ017-115-028-034-025-292200
...North Florida...

CITY           SKY/WX    TMP DP  RH WIND       PRES   REMARKS
TALLAHASSEE    PTSUNNY   98  73  44 N7        29.89S HX 108
APALACHICOLA   CLOUDY    80  73  79 E8        29.92F
PERRY          TSTM      78  78 100 NE7       29.95S
CROSS CITY       N/A     75  74  96 S10       29.96R
JACKSONVILLE   PTSUNNY   89  74  60 E12       29.90S HX  98
$$

!FLZ112-006-005-002-011-292200
...Florida Panhandle...

CITY           SKY/WX    TMP DP  RH WIND       PRES   REMARKS
MARIANNA       MOSUNNY   97  75  49 VRB3      29.89F HX 109
BONIFAY        TSTM      85  74  69 NE10G22   29.94R HX  92
PANAMA CITY NW HVY RAIN  79  74  84 SW16G30   29.94R VSB 1
TYNDALL AFB    TSTM      81  75  83 N7        29.92F
TYND DRONE APT TSTM      84  79  84 CALM      29.92S HX  96
DE FUNIAK SPR  FAIR      95  71  45 NW6       29.92F HX 102
EGLIN AFB      PTSUNNY   82  75  80 VRB5      29.93F
DESTIN         PTSUNNY   87  77  72 CALM      29.93F HX  99
HURLBURT       CLOUDY    81  75  83 W5        29.92F
CRESTVIEW      PTSUNNY   92  75  57 SW13      29.94F HX 103
PENSACOLA      LGT RAIN  78  75  90 S7        29.96R
$$

!ALZ063-066-292200
...South Alabama...

CITY           SKY/WX    TMP DP  RH WIND       PRES   REMARKS
DOTHAN         PTSUNNY   84  78  82 CALM      29.96F HX  95
OZARK CAIRNS   PTSUNNY   82  77  83 E6        29.93F THUNDER HX  91
FT RUCKER HELI TSTM      84  78  82 N5        29.92F HX  95
RUCKER HELI 3  FAIR      84  74  70 NW3       29.94F HX  91
RUCKER HELI 2  FAIR      87  76  69 N8        29.93F HX  97
FLORALA APT    TSTM      82  73  74 N17G26    29.98R
ANDALUSIA      PTSUNNY   82  74  76 CALM      29.95F THUNDER
TROY           CLOUDY    81  75  82 E3        29.95F
EUFALA         FAIR      92  78  63 VRB6      29.91F HX 107
MOBILE         CLOUDY    80  78  94 W7        29.98S
$$

!GAZ120>161-292200
...Southwest and South Central Georgia...

CITY           SKY/WX    TMP DP  RH WIND       PRES   REMARKS
THOMASVILLE    LGT RAIN  82  77  83 SW3       29.93S HX  91
BAINBRIDGE     MOSUNNY  100  73  41 N10       29.89F HX 111
MOODY AFB      MOSUNNY   90  73  57 S6        29.91F HX  99
VALDOSTA       HVY RAIN  83  77  82 S7        29.92F HX  92
MOULTRIE       PTSUNNY   90  73  58 S5        29.92S HX  98
BLAKELY        MOSUNNY   95  73  49 NW3       29.90F HX 105
ALBANY         MOSUNNY   99  70  38 W7        29.90F HX 106
TIFTON         FAIR      91  74  57 S6        29.91S HX  99
FITZGERALD     FAIR      94  76  56 E6        29.93F HX 108
CORDELE        FAIR      98  71  42 N5        29.90F HX 106
AMERICUS       FAIR      95  68  41 CALM      29.90F HX  99
HOMERVILLE     FAIR      95  77  55 CALM      29.91F HX 109
$$

!GMZ750-755-770-775-292200
...Coastal and Buoy Obs...

STATION/POSITION TIME  TEMP    WIND        PRES    VSBY  WAVE
                       AIR SEA DIR/SP/G                  HT/PER
                 (UTC) (F)     (DEG/KT/KT) (MB)    (MI)  (FT/S)
KEATON BEACH     2100   76      70/ 10/ 11 1013.3F
CEDAR KEY        2100   81     250/  5/  5 1015.3R
C TOWER          2100   86     260/ 10/ 11 1013.3R
APALACHICOLA BUO 2050   87 86  230/  8/  8 1013.9F         2/ 4
PANAMA CITY BUOY 2050   87 88  270/ 10/ 12 1014.3F         2/ 4
MOBILE BUOY      2050   88 93  260/  6/  8 1014.9F         1/ 4
ORANGE BCH AL BU 2050   87 85  280/ 10/ 10 1013.8R         1/ 4
$$



USA.gov is the U.S. government's official web portal to all federal, state and local government web resources and services.